Time,TemperatureF,DewpointF,PressureIn,WindDirection,WindDirectionDegrees,WindSpeedMPH,WindSpeedGustMPH,Humidity,HourlyPrecipIn,Conditions,Clouds,dailyrainin,SoftwareType,DateUTC
2013-01-04 00:04:00,19.7,12.5,30.03,SW,232,1.0,11.0,73,0.00,,,0.00,WUHU216DAVISVP2,2013-01-04 06:04:00,
2013-01-04 00:09:00,19.7,12.5,30.03,WSW,256,2.0,11.0,73,0.00,,,0.00,WUHU216DAVISVP2,2013-01-04 06:09:00,
2013-01-04 00:14:00,19.7,12.5,30.04,WSW,254,0.0,7.0,73,0.00,,,0.00,WUHU216DAVISVP2,2013-01-04 06:14:00,
2013-01-04 00:19:00,19.7,12.5,30.03,WSW,253,2.0,6.0,73,0.00,,,0.00,WUHU216DAVISVP2,2013-01-04 06:19:00,
2013-01-04 00:24:00,19.7,12.2,30.03,WSW,248,0.0,6.0,72,0.00,,,0.00,WUHU216DAVISVP2,2013-01-04 06:24:00,
2013-01-04 00:29:00,19.6,12.4,30.03,WSW,238,1.0,6.0,73,0.00,,,0.00,WUHU216DAVISVP2,2013-01-04 06:29:00,
2013-01-04 00:34:00,19.5,12.3,30.03,SW,229,0.0,6.0,73,0.00,,,0.00,WUHU216DAVISVP2,2013-01-04 06:34:00,
2013-01-04 00:39:00,19.4,12.2,30.03,WSW,240,0.0,6.0,73,0.00,,,0.00,WUHU216DAVISVP2,2013-01-04 06:39:00,
2013-01-04 00:44:00,19.3,12.1,30.03,WSW,246,0.0,6.0,73,0.00,,,0.00,WUHU216DAVISVP2,2013-01-04 06:44:00,
2013-01-04 00:49:00,19.2,12.0,30.02,SW,221,0.0,6.0,73,0.00,,,0.00,WUHU216DAVISVP2,2013-01-04 06:49:00,
2013-01-04 00:54:00,19.1,11.9,30.04,SW,231,0.0,3.0,73,0.00,,,0.00,WUHU216DAVISVP2,2013-01-04 06:54:00,
2013-01-04 00:59:00,19.1,11.9,30.04,SW,231,0.0,2.0,73,0.00,,,0.00,WUHU216DAVISVP2,2013-01-04 06:59:00,
2013-01-04 01:04:00,19.0,11.8,30.04,SW,233,0.0,4.0,73,0.00,,,0.00,WUHU216DAVISVP2,2013-01-04 07:04:00,
2013-01-04 01:09:00,18.9,11.7,30.04,SW,233,0.0,4.0,73,0.00,,,0.00,WUHU216DAVISVP2,2013-01-04 07:09:00,
2013-01-04 01:14:00,18.8,11.6,30.04,SW,233,0.0,2.0,73,0.00,,,0.00,WUHU216DAVISVP2,2013-01-04 07:14:00,
2013-01-04 01:19:00,18.6,11.4,30.04,SW,233,0.0,0.0,73,0.00,,,0.00,WUHU216DAVISVP2,2013-01-04 07:19:00,
2013-01-04 01:24:00,18.4,11.2,30.04,SW,233,0.0,0.0,73,0.00,,,0.00,WUHU216DAVISVP2,2013-01-04 07:24:00,
2013-01-04 01:29:00,18.1,10.9,30.04,SW,233,0.0,0.0,73,0.00,,,0.00,WUHU216DAVISVP2,2013-01-04 07:29:00,
2013-01-04 01:33:00,17.8,10.6,30.04,SW,233,0.0,0.0,73,0.00,,,0.00,WUHU216DAVISVP2,2013-01-04 07:33:00,
2013-01-04 01:38:00,17.7,10.9,30.04,SW,233,0.0,0.0,74,0.00,,,0.00,WUHU216DAVISVP2,2013-01-04 07:38:00,
2013-01-04 01:43:00,17.6,10.8,30.04,SW,233,0.0,0.0,74,0.00,,,0.00,WUHU216DAVISVP2,2013-01-04 07:43:00,
2013-01-04 01:48:00,17.5,10.7,30.04,SW,233,0.0,0.0,74,0.00,,,0.00,WUHU216DAVISVP2,2013-01-04 07:48:00,
2013-01-04 01:53:00,17.4,10.6,30.04,SW,233,0.0,0.0,74,0.00,,,0.00,WUHU216DAVISVP2,2013-01-04 07:53:00,
2013-01-04 01:58:00,17.3,10.5,30.04,SW,233,0.0,0.0,74,0.00,,,0.00,WUHU216DAVISVP2,2013-01-04 07:58:00,
2013-01-04 02:03:00,17.1,10.3,30.04,SW,233,0.0,0.0,74,0.00,,,0.00,WUHU216DAVISVP2,2013-01-04 08:03:00,
2013-01-04 02:08:00,17.0,10.2,30.04,SW,233,0.0,0.0,74,0.00,,,0.00,WUHU216DAVISVP2,2013-01-04 08:08:00,
2013-01-04 02:13:00,17.0,10.5,30.04,SW,233,0.0,0.0,75,0.00,,,0.00,WUHU216DAVISVP2,2013-01-04 08:13:00,
2013-01-04 02:18:00,17.0,10.5,30.05,SW,233,0.0,0.0,75,0.00,,,0.00,WUHU216DAVISVP2,2013-01-04 08:18:00,
2013-01-04 02:24:00,17.0,10.5,30.05,SW,233,0.0,0.0,75,0.00,,,0.00,WUHU216DAVISVP2,2013-01-04 08:24:00,
2013-01-04 02:29:00,16.8,10.3,30.05,SW,233,0.0,0.0,75,0.00,,,0.00,WUHU216DAVISVP2,2013-01-04 08:29:00,
2013-01-04 02:34:00,16.7,10.2,30.05,SW,233,0.0,0.0,75,0.00,,,0.00,WUHU216DAVISVP2,2013-01-04 08:34:00,
2013-01-04 02:39:00,16.6,10.1,30.04,SW,233,0.0,0.0,75,0.00,,,0.00,WUHU216DAVISVP2,2013-01-04 08:39:00,
2013-01-04 02:44:00,16.5,10.0,30.05,SW,233,0.0,0.0,75,0.00,,,0.00,WUHU216DAVISVP2,2013-01-04 08:44:00,
2013-01-04 02:49:00,16.5,10.0,30.05,SW,233,0.0,1.0,75,0.00,,,0.00,WUHU216DAVISVP2,2013-01-04 08:49:00,
2013-01-04 02:54:00,16.4,9.9,30.05,SW,234,0.0,1.0,75,0.00,,,0.00,WUHU216DAVISVP2,2013-01-04 08:54:00,
2013-01-04 02:59:00,16.3,9.8,30.05,SW,234,0.0,0.0,75,0.00,,,0.00,WUHU216DAVISVP2,2013-01-04 08:59:00,
2013-01-04 03:04:00,16.2,9.7,30.05,SW,234,0.0,0.0,75,0.00,,,0.00,WUHU216DAVISVP2,2013-01-04 09:04:00,
2013-01-04 03:09:00,16.0,9.5,30.05,SW,234,0.0,0.0,75,0.00,,,0.00,WUHU216DAVISVP2,2013-01-04 09:09:00,
2013-01-04 03:14:00,15.8,9.3,30.05,SW,234,0.0,0.0,75,0.00,,,0.00,WUHU216DAVISVP2,2013-01-04 09:14:00,
2013-01-04 03:19:00,15.7,9.2,30.05,SW,233,0.0,0.0,75,0.00,,,0.00,WUHU216DAVISVP2,2013-01-04 09:19:00,
2013-01-04 03:24:00,15.7,9.2,30.05,SW,234,0.0,0.0,75,0.00,,,0.00,WUHU216DAVISVP2,2013-01-04 09:24:00,
2013-01-04 03:28:00,15.7,9.2,30.05,SW,234,0.0,0.0,75,0.00,,,0.00,WUHU216DAVISVP2,2013-01-04 09:28:00,
2013-01-04 03:34:00,15.6,9.1,30.05,SW,234,0.0,0.0,75,0.00,,,0.00,WUHU216DAVISVP2,2013-01-04 09:34:00,
2013-01-04 03:38:00,15.4,8.9,30.05,SW,234,0.0,0.0,75,0.00,,,0.00,WUHU216DAVISVP2,2013-01-04 09:38:00,
2013-01-04 03:43:00,15.2,8.7,30.05,SW,234,0.0,0.0,75,0.00,,,0.00,WUHU216DAVISVP2,2013-01-04 09:43:00,
2013-01-04 03:48:00,15.1,8.6,30.05,SW,234,0.0,0.0,75,0.00,,,0.00,WUHU216DAVISVP2,2013-01-04 09:48:00,
2013-01-04 03:54:00,15.1,8.9,30.05,SW,234,0.0,0.0,76,0.00,,,0.00,WUHU216DAVISVP2,2013-01-04 09:54:00,
2013-01-04 03:59:00,15.2,9.0,30.05,SW,233,0.0,0.0,76,0.00,,,0.00,WUHU216DAVISVP2,2013-01-04 09:59:00,
2013-01-04 04:04:00,15.2,9.0,30.05,SW,234,0.0,0.0,76,0.00,,,0.00,WUHU216DAVISVP2,2013-01-04 10:04:00,
2013-01-04 04:09:00,15.2,9.0,30.05,SW,234,0.0,0.0,76,0.00,,,0.00,WUHU216DAVISVP2,2013-01-04 10:09:00,
2013-01-04 04:14:00,15.2,8.7,30.05,SW,234,0.0,0.0,75,0.00,,,0.00,WUHU216DAVISVP2,2013-01-04 10:14:00,
2013-01-04 04:19:00,15.0,8.5,30.04,SW,234,0.0,0.0,75,0.00,,,0.00,WUHU216DAVISVP2,2013-01-04 10:19:00,
2013-01-04 04:23:00,14.9,8.7,30.04,SW,234,0.0,0.0,76,0.00,,,0.00,WUHU216DAVISVP2,2013-01-04 10:23:00,
2013-01-04 04:28:00,14.8,8.6,30.05,SW,234,0.0,0.0,76,0.00,,,0.00,WUHU216DAVISVP2,2013-01-04 10:28:00,
2013-01-04 04:33:00,14.8,8.6,30.05,SW,234,0.0,0.0,76,0.00,,,0.00,WUHU216DAVISVP2,2013-01-04 10:33:00,
2013-01-04 04:38:00,14.8,8.6,30.05,SW,234,0.0,0.0,76,0.00,,,0.00,WUHU216DAVISVP2,2013-01-04 10:38:00,
2013-01-04 04:43:00,14.9,8.7,30.05,SW,234,0.0,0.0,76,0.00,,,0.00,WUHU216DAVISVP2,2013-01-04 10:43:00,
2013-01-04 04:48:00,14.9,8.7,30.05,SW,234,0.0,0.0,76,0.00,,,0.00,WUHU216DAVISVP2,2013-01-04 10:48:00,
2013-01-04 04:54:00,14.8,8.6,30.06,SW,234,0.0,0.0,76,0.00,,,0.00,WUHU216DAVISVP2,2013-01-04 10:54:00,
2013-01-04 04:58:00,14.8,8.6,30.06,SW,234,0.0,0.0,76,0.00,,,0.00,WUHU216DAVISVP2,2013-01-04 10:58:00,
2013-01-04 05:04:00,14.7,8.5,30.06,SW,234,0.0,0.0,76,0.00,,,0.00,WUHU216DAVISVP2,2013-01-04 11:04:00,
2013-01-04 05:09:00,14.6,8.7,30.06,SW,234,0.0,0.0,77,0.00,,,0.00,WUHU216DAVISVP2,2013-01-04 11:09:00,
2013-01-04 05:14:00,14.6,8.7,30.06,SW,234,0.0,0.0,77,0.00,,,0.00,WUHU216DAVISVP2,2013-01-04 11:14:00,
2013-01-04 05:19:00,14.7,8.8,30.06,SW,234,0.0,0.0,77,0.00,,,0.00,WUHU216DAVISVP2,2013-01-04 11:19:00,
2013-01-04 05:24:00,14.8,8.9,30.06,SW,234,0.0,0.0,77,0.00,,,0.00,WUHU216DAVISVP2,2013-01-04 11:24:00,
2013-01-04 05:28:00,14.9,9.0,30.06,SW,234,0.0,0.0,77,0.00,,,0.00,WUHU216DAVISVP2,2013-01-04 11:28:00,
2013-01-04 05:34:00,14.9,8.7,30.06,SW,234,0.0,0.0,76,0.00,,,0.00,WUHU216DAVISVP2,2013-01-04 11:34:00,
2013-01-04 05:39:00,14.9,8.7,30.07,SW,234,0.0,0.0,76,0.00,,,0.00,WUHU216DAVISVP2,2013-01-04 11:39:00,
2013-01-04 05:44:00,14.9,9.0,30.06,SW,234,0.0,0.0,77,0.00,,,0.00,WUHU216DAVISVP2,2013-01-04 11:44:00,
2013-01-04 05:49:00,14.8,8.6,30.06,SW,234,0.0,0.0,76,0.00,,,0.00,WUHU216DAVISVP2,2013-01-04 11:49:00,
2013-01-04 05:54:00,14.7,8.5,30.07,SW,234,0.0,0.0,76,0.00,,,0.00,WUHU216DAVISVP2,2013-01-04 11:54:00,
2013-01-04 05:59:00,14.6,8.7,30.07,SW,234,0.0,0.0,77,0.00,,,0.00,WUHU216DAVISVP2,2013-01-04 11:59:00,
2013-01-04 06:04:00,14.5,8.6,30.07,SW,234,0.0,0.0,77,0.00,,,0.00,WUHU216DAVISVP2,2013-01-04 12:04:00,
2013-01-04 06:09:00,14.4,8.5,30.07,SW,234,0.0,0.0,77,0.00,,,0.00,WUHU216DAVISVP2,2013-01-04 12:09:00,
2013-01-04 06:14:00,14.3,8.4,30.07,SW,234,0.0,0.0,77,0.00,,,0.00,WUHU216DAVISVP2,2013-01-04 12:14:00,
2013-01-04 06:19:00,14.3,8.4,30.07,SW,234,0.0,0.0,77,0.00,,,0.00,WUHU216DAVISVP2,2013-01-04 12:19:00,
2013-01-04 06:24:00,14.1,8.2,30.07,SW,234,0.0,0.0,77,0.00,,,0.00,WUHU216DAVISVP2,2013-01-04 12:24:00,
2013-01-04 06:29:00,14.1,8.2,30.07,SW,234,0.0,0.0,77,0.00,,,0.00,WUHU216DAVISVP2,2013-01-04 12:29:00,
2013-01-04 06:34:00,14.0,8.1,30.07,SW,234,0.0,0.0,77,0.00,,,0.00,WUHU216DAVISVP2,2013-01-04 12:34:00,
2013-01-04 06:39:00,14.0,8.1,30.07,SW,234,0.0,0.0,77,0.00,,,0.00,WUHU216DAVISVP2,2013-01-04 12:39:00,
2013-01-04 06:44:00,14.0,8.1,30.07,SW,234,0.0,0.0,77,0.00,,,0.00,WUHU216DAVISVP2,2013-01-04 12:44:00,
2013-01-04 06:49:00,14.0,8.1,30.07,SW,234,0.0,0.0,77,0.00,,,0.00,WUHU216DAVISVP2,2013-01-04 12:49:00,
2013-01-04 06:54:00,13.9,8.0,30.08,SW,234,0.0,0.0,77,0.00,,,0.00,WUHU216DAVISVP2,2013-01-04 12:54:00,
2013-01-04 06:59:00,13.9,8.3,30.08,SW,234,0.0,0.0,78,0.00,,,0.00,WUHU216DAVISVP2,2013-01-04 12:59:00,
2013-01-04 07:03:00,13.8,7.9,30.07,SW,234,0.0,0.0,77,0.00,,,0.00,WUHU216DAVISVP2,2013-01-04 13:03:00,
2013-01-04 07:09:00,13.7,8.1,30.07,SW,234,0.0,0.0,78,0.00,,,0.00,WUHU216DAVISVP2,2013-01-04 13:09:00,
2013-01-04 07:14:00,13.6,8.0,30.08,SW,234,0.0,0.0,78,0.00,,,0.00,WUHU216DAVISVP2,2013-01-04 13:14:00,
2013-01-04 07:18:00,13.5,7.9,30.08,SW,234,0.0,0.0,78,0.00,,,0.00,WUHU216DAVISVP2,2013-01-04 13:18:00,
2013-01-04 07:23:00,13.4,7.8,30.08,SW,234,0.0,0.0,78,0.00,,,0.00,WUHU216DAVISVP2,2013-01-04 13:23:00,
2013-01-04 07:28:00,13.5,7.9,30.08,SW,234,0.0,0.0,78,0.00,,,0.00,WUHU216DAVISVP2,2013-01-04 13:28:00,
2013-01-04 07:33:00,13.5,7.9,30.08,SW,234,0.0,0.0,78,0.00,,,0.00,WUHU216DAVISVP2,2013-01-04 13:33:00,
2013-01-04 07:38:00,13.5,7.9,30.08,SW,234,0.0,0.0,78,0.00,,,0.00,WUHU216DAVISVP2,2013-01-04 13:38:00,
2013-01-04 07:43:00,13.5,7.9,30.08,SW,234,0.0,0.0,78,0.00,,,0.00,WUHU216DAVISVP2,2013-01-04 13:43:00,
2013-01-04 07:48:00,13.6,8.0,30.09,SW,234,0.0,0.0,78,0.00,,,0.00,WUHU216DAVISVP2,2013-01-04 13:48:00,
2013-01-04 07:53:00,13.7,8.1,30.09,SW,234,0.0,0.0,78,0.00,,,0.00,WUHU216DAVISVP2,2013-01-04 13:53:00,
2013-01-04 07:58:00,13.8,8.2,30.09,SW,234,0.0,0.0,78,0.00,,,0.00,WUHU216DAVISVP2,2013-01-04 13:58:00,
2013-01-04 08:03:00,13.9,8.3,30.09,SW,234,0.0,0.0,78,0.00,,,0.00,WUHU216DAVISVP2,2013-01-04 14:03:00,
2013-01-04 08:08:00,14.0,8.4,30.09,SW,234,0.0,0.0,78,0.00,,,0.00,WUHU216DAVISVP2,2013-01-04 14:08:00,
2013-01-04 08:13:00,14.0,8.4,30.09,SW,234,0.0,0.0,78,0.00,,,0.00,WUHU216DAVISVP2,2013-01-04 14:13:00,
2013-01-04 08:18:00,14.0,8.1,30.09,SW,234,0.0,0.0,77,0.00,,,0.00,WUHU216DAVISVP2,2013-01-04 14:18:00,
2013-01-04 08:23:00,14.0,8.1,30.09,SW,234,0.0,0.0,77,0.00,,,0.00,WUHU216DAVISVP2,2013-01-04 14:23:00,
2013-01-04 08:29:00,14.1,8.2,30.10,SW,234,0.0,0.0,77,0.00,,,0.00,WUHU216DAVISVP2,2013-01-04 14:29:00,
2013-01-04 08:34:00,14.1,8.2,30.10,SW,235,0.0,2.0,77,0.00,,,0.00,WUHU216DAVISVP2,2013-01-04 14:34:00,
2013-01-04 08:39:00,14.3,8.4,30.11,SW,234,0.0,2.0,77,0.00,,,0.00,WUHU216DAVISVP2,2013-01-04 14:39:00,
2013-01-04 08:44:00,14.4,8.5,30.11,SW,235,0.0,2.0,77,0.00,,,0.00,WUHU216DAVISVP2,2013-01-04 14:44:00,
2013-01-04 08:49:00,14.6,8.7,30.11,SW,235,0.0,0.0,77,0.00,,,0.00,WUHU216DAVISVP2,2013-01-04 14:49:00,
2013-01-04 08:54:00,14.9,9.0,30.11,SW,235,0.0,0.0,77,0.00,,,0.00,WUHU216DAVISVP2,2013-01-04 14:54:00,
2013-01-04 08:58:00,15.3,9.4,30.11,SW,234,0.0,0.0,77,0.00,,,0.00,WUHU216DAVISVP2,2013-01-04 14:58:00,
2013-01-04 09:03:00,15.7,9.5,30.11,SW,236,0.0,2.0,76,0.00,,,0.00,WUHU216DAVISVP2,2013-01-04 15:03:00,
2013-01-04 09:08:00,16.0,9.8,30.12,WSW,247,3.0,3.0,76,0.00,,,0.00,WUHU216DAVISVP2,2013-01-04 15:08:00,
2013-01-04 09:13:00,16.3,9.8,30.12,WSW,247,1.0,3.0,75,0.00,,,0.00,WUHU216DAVISVP2,2013-01-04 15:13:00,
2013-01-04 09:18:00,16.6,10.1,30.12,WSW,250,0.0,2.0,75,0.00,,,0.00,WUHU216DAVISVP2,2013-01-04 15:18:00,
2013-01-04 09:23:00,16.9,10.4,30.12,WSW,247,0.0,3.0,75,0.00,,,0.00,WUHU216DAVISVP2,2013-01-04 15:23:00,
2013-01-04 09:28:00,17.2,10.7,30.13,WSW,238,0.0,3.0,75,0.00,,,0.00,WUHU216DAVISVP2,2013-01-04 15:28:00,
2013-01-04 09:34:00,17.5,11.0,30.13,WSW,238,0.0,2.0,75,0.00,,,0.00,WUHU216DAVISVP2,2013-01-04 15:34:00,
2013-01-04 09:39:00,17.8,11.2,30.13,WSW,238,0.0,2.0,75,0.00,,,0.00,WUHU216DAVISVP2,2013-01-04 15:39:00,
2013-01-04 09:44:00,18.1,11.2,30.13,WSW,238,0.0,3.0,74,0.00,,,0.00,WUHU216DAVISVP2,2013-01-04 15:44:00,
2013-01-04 09:49:00,18.5,11.6,30.13,WSW,239,0.0,3.0,74,0.00,,,0.00,WUHU216DAVISVP2,2013-01-04 15:49:00,
2013-01-04 09:54:00,18.9,12.0,30.13,WSW,239,0.0,0.0,74,0.00,,,0.00,WUHU216DAVISVP2,2013-01-04 15:54:00,
2013-01-04 09:59:00,19.4,12.5,30.13,WSW,239,0.0,0.0,74,0.00,,,0.00,WUHU216DAVISVP2,2013-01-04 15:59:00,
2013-01-04 10:04:00,19.8,12.6,30.13,WSW,239,0.0,2.0,73,0.00,,,0.00,WUHU216DAVISVP2,2013-01-04 16:04:00,
2013-01-04 10:09:00,20.4,12.9,30.13,WSW,240,0.0,3.0,72,0.00,,,0.00,WUHU216DAVISVP2,2013-01-04 16:09:00,
2013-01-04 10:14:00,21.0,13.4,30.14,WSW,240,0.0,3.0,72,0.00,,,0.00,WUHU216DAVISVP2,2013-01-04 16:14:00,
2013-01-04 10:19:00,21.6,13.7,30.14,WSW,241,0.0,2.0,71,0.00,,,0.00,WUHU216DAVISVP2,2013-01-04 16:19:00,
2013-01-04 10:24:00,22.2,15.8,30.14,WSW,241,0.0,2.0,76,0.00,,,0.00,WUHU216DAVISVP2,2013-01-04 16:24:00,
2013-01-04 10:29:00,22.5,13.9,30.14,WSW,241,0.0,3.0,69,0.00,,,0.00,WUHU216DAVISVP2,2013-01-04 16:29:00,
2013-01-04 10:34:00,22.8,14.2,30.14,WSW,248,2.0,5.0,69,0.00,,,0.00,WUHU216DAVISVP2,2013-01-04 16:34:00,
2013-01-04 10:39:00,22.9,14.0,30.14,WSW,250,0.0,5.0,68,0.00,,,0.00,WUHU216DAVISVP2,2013-01-04 16:39:00,
2013-01-04 10:44:00,23.0,14.1,30.14,WSW,250,0.0,5.0,68,0.00,,,0.00,WUHU216DAVISVP2,2013-01-04 16:44:00,
2013-01-04 10:49:00,23.4,14.8,30.14,WSW,252,3.0,5.0,69,0.00,,,0.00,WUHU216DAVISVP2,2013-01-04 16:49:00,
2013-01-04 10:54:00,23.8,14.8,30.15,West,269,0.0,4.0,68,0.00,,,0.00,WUHU216DAVISVP2,2013-01-04 16:54:00,
2013-01-04 10:59:00,24.2,15.2,30.15,West,269,0.0,4.0,68,0.00,,,0.00,WUHU216DAVISVP2,2013-01-04 16:59:00,
2013-01-04 11:04:00,24.4,14.7,30.15,West,261,0.0,4.0,66,0.00,,,0.00,WUHU216DAVISVP2,2013-01-04 17:04:00,
2013-01-04 11:09:00,24.2,14.5,30.15,West,263,0.0,4.0,66,0.00,,,0.00,WUHU216DAVISVP2,2013-01-04 17:09:00,
2013-01-04 11:14:00,24.1,14.4,30.14,West,259,2.0,6.0,66,0.00,,,0.00,WUHU216DAVISVP2,2013-01-04 17:14:00,
2013-01-04 11:19:00,24.1,14.8,30.15,West,259,0.0,6.0,67,0.00,,,0.00,WUHU216DAVISVP2,2013-01-04 17:19:00,
2013-01-04 11:24:00,24.5,15.2,30.14,West,259,0.0,4.0,67,0.00,,,0.00,WUHU216DAVISVP2,2013-01-04 17:24:00,
2013-01-04 11:29:00,24.9,15.2,30.14,WSW,247,0.0,5.0,66,0.00,,,0.00,WUHU216DAVISVP2,2013-01-04 17:29:00,
2013-01-04 11:34:00,25.3,15.9,30.14,WSW,247,0.0,5.0,67,0.00,,,0.00,WUHU216DAVISVP2,2013-01-04 17:34:00,
2013-01-04 11:39:00,25.5,15.8,30.14,WSW,247,0.0,2.0,66,0.00,,,0.00,WUHU216DAVISVP2,2013-01-04 17:39:00,
2013-01-04 11:44:00,25.8,16.1,30.14,WSW,246,0.0,2.0,66,0.00,,,0.00,WUHU216DAVISVP2,2013-01-04 17:44:00,
2013-01-04 11:49:00,26.3,16.2,30.14,WSW,248,0.0,0.0,65,0.00,,,0.00,WUHU216DAVISVP2,2013-01-04 17:49:00,
2013-01-04 11:54:00,26.6,16.5,30.14,WSW,244,0.0,3.0,65,0.00,,,0.00,WUHU216DAVISVP2,2013-01-04 17:54:00,
2013-01-04 11:59:00,26.6,16.1,30.14,WSW,244,1.0,4.0,64,0.00,,,0.00,WUHU216DAVISVP2,2013-01-04 17:59:00,
2013-01-04 12:04:00,26.5,16.4,30.14,WSW,245,0.0,4.0,65,0.00,,,0.00,WUHU216DAVISVP2,2013-01-04 18:04:00,
2013-01-04 12:09:00,26.6,16.5,30.14,WSW,245,0.0,3.0,65,0.00,,,0.00,WUHU216DAVISVP2,2013-01-04 18:09:00,
2013-01-04 12:14:00,27.0,16.9,30.14,WSW,244,0.0,0.0,65,0.00,,,0.00,WUHU216DAVISVP2,2013-01-04 18:14:00,
2013-01-04 12:19:00,27.3,16.8,30.13,WSW,244,0.0,0.0,64,0.00,,,0.00,WUHU216DAVISVP2,2013-01-04 18:19:00,
2013-01-04 12:24:00,27.6,17.1,30.13,WSW,244,0.0,0.0,64,0.00,,,0.00,WUHU216DAVISVP2,2013-01-04 18:24:00,
2013-01-04 12:29:00,28.1,17.5,30.13,WSW,244,0.0,0.0,64,0.00,,,0.00,WUHU216DAVISVP2,2013-01-04 18:29:00,
2013-01-04 12:34:00,28.5,17.6,30.13,WSW,245,0.0,0.0,63,0.00,,,0.00,WUHU216DAVISVP2,2013-01-04 18:34:00,
2013-01-04 12:39:00,28.3,17.0,30.13,WSW,245,0.0,3.0,62,0.00,,,0.00,WUHU216DAVISVP2,2013-01-04 18:39:00,
2013-01-04 12:44:00,28.2,17.3,30.13,WSW,248,2.0,3.0,63,0.00,,,0.00,WUHU216DAVISVP2,2013-01-04 18:44:00,
2013-01-04 12:49:00,27.8,17.3,30.14,WSW,256,1.0,5.0,64,0.00,,,0.00,WUHU216DAVISVP2,2013-01-04 18:49:00,
2013-01-04 12:54:00,27.5,16.6,30.13,West,269,1.0,5.0,63,0.00,,,0.00,WUHU216DAVISVP2,2013-01-04 18:54:00,
2013-01-04 12:59:00,27.3,17.1,30.13,West,271,2.0,4.0,65,0.00,,,0.00,WUHU216DAVISVP2,2013-01-04 18:59:00,
2013-01-04 13:04:00,26.9,16.4,30.13,West,271,0.0,4.0,64,0.00,,,0.00,WUHU216DAVISVP2,2013-01-04 19:04:00,
2013-01-04 13:09:00,26.5,16.0,30.13,West,275,2.0,9.0,64,0.00,,,0.00,WUHU216DAVISVP2,2013-01-04 19:09:00,
2013-01-04 13:14:00,26.2,16.4,30.13,West,280,0.0,9.0,66,0.00,,,0.00,WUHU216DAVISVP2,2013-01-04 19:14:00,
2013-01-04 13:19:00,26.2,16.4,30.13,West,280,0.0,8.0,66,0.00,,,0.00,WUHU216DAVISVP2,2013-01-04 19:19:00,
2013-01-04 13:24:00,26.6,16.8,30.13,West,281,2.0,4.0,66,0.00,,,0.00,WUHU216DAVISVP2,2013-01-04 19:24:00,
2013-01-04 13:29:00,26.7,16.9,30.13,West,279,0.0,4.0,66,0.00,,,0.00,WUHU216DAVISVP2,2013-01-04 19:29:00,
2013-01-04 13:34:00,27.0,17.2,30.13,West,271,0.0,4.0,66,0.00,,,0.00,WUHU216DAVISVP2,2013-01-04 19:34:00,
2013-01-04 13:39:00,26.9,16.8,30.13,West,277,0.0,4.0,65,0.00,,,0.00,WUHU216DAVISVP2,2013-01-04 19:39:00,
2013-01-04 13:44:00,26.6,16.8,30.12,West,279,1.0,6.0,66,0.00,,,0.00,WUHU216DAVISVP2,2013-01-04 19:44:00,
2013-01-04 13:49:00,26.3,16.5,30.12,West,273,5.0,7.0,66,0.00,,,0.00,WUHU216DAVISVP2,2013-01-04 19:49:00,
2013-01-04 13:54:00,26.3,16.5,30.13,West,273,2.0,7.0,66,0.00,,,0.00,WUHU216DAVISVP2,2013-01-04 19:54:00,
2013-01-04 13:59:00,26.2,16.8,30.12,West,275,0.0,6.0,67,0.00,,,0.00,WUHU216DAVISVP2,2013-01-04 19:59:00,
2013-01-04 14:04:00,26.4,17.0,30.12,West,275,0.0,6.0,67,0.00,,,0.00,WUHU216DAVISVP2,2013-01-04 20:04:00,
2013-01-04 14:09:00,26.4,17.0,30.12,West,277,2.0,3.0,67,0.00,,,0.00,WUHU216DAVISVP2,2013-01-04 20:09:00,
2013-01-04 14:14:00,26.3,16.9,30.12,WNW,284,3.0,4.0,67,0.00,,,0.00,WUHU216DAVISVP2,2013-01-04 20:14:00,
2013-01-04 14:19:00,26.1,16.7,30.12,WNW,285,0.0,4.0,67,0.00,,,0.00,WUHU216DAVISVP2,2013-01-04 20:19:00,
2013-01-04 14:24:00,25.9,16.5,30.12,WNW,285,0.0,3.0,67,0.00,,,0.00,WUHU216DAVISVP2,2013-01-04 20:24:00,
2013-01-04 14:29:00,25.8,16.8,30.12,WNW,284,0.0,0.0,68,0.00,,,0.00,WUHU216DAVISVP2,2013-01-04 20:29:00,
2013-01-04 14:34:00,26.1,17.4,30.12,WNW,285,0.0,0.0,69,0.00,,,0.00,WUHU216DAVISVP2,2013-01-04 20:34:00,
2013-01-04 14:39:00,26.1,16.7,30.11,NNE,17,0.0,3.0,67,0.00,,,0.00,WUHU216DAVISVP2,2013-01-04 20:39:00,
2013-01-04 14:44:00,25.9,16.8,30.11,NNE,17,0.0,4.0,68,0.00,,,0.00,WUHU216DAVISVP2,2013-01-04 20:44:00,
2013-01-04 14:49:00,25.9,16.8,30.12,NNE,17,0.0,4.0,68,0.00,,,0.00,WUHU216DAVISVP2,2013-01-04 20:49:00,
2013-01-04 14:54:00,25.8,16.8,30.12,NNE,17,0.0,2.0,68,0.00,,,0.00,WUHU216DAVISVP2,2013-01-04 20:54:00,
2013-01-04 14:59:00,25.8,17.1,30.12,NNE,17,0.0,2.0,69,0.00,,,0.00,WUHU216DAVISVP2,2013-01-04 20:59:00,
2013-01-04 15:04:00,25.7,16.7,30.12,NNE,17,0.0,0.0,68,0.00,,,0.00,WUHU216DAVISVP2,2013-01-04 21:04:00,
2013-01-04 15:09:00,25.6,16.6,30.11,NNE,17,0.0,0.0,68,0.00,,,0.00,WUHU216DAVISVP2,2013-01-04 21:09:00,
2013-01-04 15:14:00,25.6,16.6,30.12,NNE,17,0.0,0.0,68,0.00,,,0.00,WUHU216DAVISVP2,2013-01-04 21:14:00,
2013-01-04 15:19:00,25.6,16.6,30.12,NNE,17,0.0,0.0,68,0.00,,,0.00,WUHU216DAVISVP2,2013-01-04 21:19:00,
2013-01-04 15:24:00,25.7,16.7,30.12,NNE,17,0.0,0.0,68,0.00,,,0.00,WUHU216DAVISVP2,2013-01-04 21:24:00,
2013-01-04 15:29:00,25.7,16.7,30.12,NNE,17,0.0,0.0,68,0.00,,,0.00,WUHU216DAVISVP2,2013-01-04 21:29:00,
2013-01-04 15:34:00,25.7,16.7,30.12,NNE,17,0.0,0.0,68,0.00,,,0.00,WUHU216DAVISVP2,2013-01-04 21:34:00,
2013-01-04 15:39:00,25.6,16.6,30.12,NNE,15,0.0,0.0,68,0.00,,,0.00,WUHU216DAVISVP2,2013-01-04 21:39:00,
2013-01-04 15:44:00,25.5,16.5,30.13,NNE,15,0.0,0.0,68,0.00,,,0.00,WUHU216DAVISVP2,2013-01-04 21:44:00,
2013-01-04 15:49:00,25.5,16.5,30.13,NNE,15,0.0,0.0,68,0.00,,,0.00,WUHU216DAVISVP2,2013-01-04 21:49:00,
2013-01-04 15:54:00,25.7,16.7,30.13,NNE,14,0.0,0.0,68,0.00,,,0.00,WUHU216DAVISVP2,2013-01-04 21:54:00,
2013-01-04 15:59:00,25.5,16.5,30.13,NNE,14,0.0,0.0,68,0.00,,,0.00,WUHU216DAVISVP2,2013-01-04 21:59:00,
2013-01-04 16:04:00,25.3,16.3,30.14,NNE,15,0.0,0.0,68,0.00,,,0.00,WUHU216DAVISVP2,2013-01-04 22:04:00,
2013-01-04 16:09:00,25.1,16.4,30.14,NNE,15,0.0,0.0,69,0.00,,,0.00,WUHU216DAVISVP2,2013-01-04 22:09:00,
2013-01-04 16:14:00,25.0,16.3,30.14,NNE,14,0.0,0.0,69,0.00,,,0.00,WUHU216DAVISVP2,2013-01-04 22:14:00,
2013-01-04 16:19:00,24.9,16.2,30.14,NNE,15,0.0,0.0,69,0.00,,,0.00,WUHU216DAVISVP2,2013-01-04 22:19:00,
2013-01-04 16:24:00,24.8,16.1,30.14,NNE,15,0.0,0.0,69,0.00,,,0.00,WUHU216DAVISVP2,2013-01-04 22:24:00,
2013-01-04 16:29:00,24.7,16.0,30.14,NNE,14,0.0,0.0,69,0.00,,,0.00,WUHU216DAVISVP2,2013-01-04 22:29:00,
2013-01-04 16:34:00,24.5,15.8,30.14,NNE,15,0.0,0.0,69,0.00,,,0.00,WUHU216DAVISVP2,2013-01-04 22:34:00,
2013-01-04 16:39:00,24.3,15.6,30.14,NNE,15,0.0,0.0,69,0.00,,,0.00,WUHU216DAVISVP2,2013-01-04 22:39:00,
2013-01-04 16:44:00,24.2,15.5,30.14,NNE,15,0.0,0.0,69,0.00,,,0.00,WUHU216DAVISVP2,2013-01-04 22:44:00,
2013-01-04 16:49:00,23.9,15.6,30.15,NNE,14,0.0,0.0,70,0.00,,,0.00,WUHU216DAVISVP2,2013-01-04 22:49:00,
2013-01-04 16:54:00,23.6,15.3,30.14,NNE,14,0.0,0.0,70,0.00,,,0.00,WUHU216DAVISVP2,2013-01-04 22:54:00,
2013-01-04 16:59:00,23.4,15.1,30.15,NNE,15,0.0,0.0,70,0.00,,,0.00,WUHU216DAVISVP2,2013-01-04 22:59:00,
2013-01-04 17:04:00,23.0,16.6,30.14,NNE,14,0.0,0.0,76,0.00,,,0.00,WUHU216DAVISVP2,2013-01-04 23:04:00,
2013-01-04 17:09:00,22.6,14.7,30.14,NNE,14,0.0,0.0,71,0.00,,,0.00,WUHU216DAVISVP2,2013-01-04 23:09:00,
2013-01-04 17:14:00,22.2,14.3,30.14,NNE,15,0.0,0.0,71,0.00,,,0.00,WUHU216DAVISVP2,2013-01-04 23:14:00,
2013-01-04 17:19:00,21.8,14.2,30.14,NNE,15,0.0,0.0,72,0.00,,,0.00,WUHU216DAVISVP2,2013-01-04 23:19:00,
2013-01-04 17:24:00,21.5,13.9,30.13,NNE,15,0.0,0.0,72,0.00,,,0.00,WUHU216DAVISVP2,2013-01-04 23:24:00,
2013-01-04 17:29:00,21.2,13.9,30.14,NNE,14,0.0,0.0,73,0.00,,,0.00,WUHU216DAVISVP2,2013-01-04 23:29:00,
2013-01-04 17:34:00,20.9,13.6,30.14,NNE,14,0.0,0.0,73,0.00,,,0.00,WUHU216DAVISVP2,2013-01-04 23:34:00,
2013-01-04 17:39:00,20.6,13.7,30.13,NNE,14,0.0,0.0,74,0.00,,,0.00,WUHU216DAVISVP2,2013-01-04 23:39:00,
2013-01-04 17:44:00,20.6,13.7,30.13,NNE,14,0.0,0.0,74,0.00,,,0.00,WUHU216DAVISVP2,2013-01-04 23:44:00,
2013-01-04 17:49:00,20.8,13.9,30.14,NNE,14,0.0,0.0,74,0.00,,,0.00,WUHU216DAVISVP2,2013-01-04 23:49:00,
2013-01-04 17:54:00,20.8,13.9,30.13,NNE,14,0.0,0.0,74,0.00,,,0.00,WUHU216DAVISVP2,2013-01-04 23:54:00,
2013-01-04 17:59:00,20.6,13.7,30.13,NNE,14,0.0,0.0,74,0.00,,,0.00,WUHU216DAVISVP2,2013-01-04 23:59:00,
2013-01-04 18:04:00,20.4,13.5,30.13,NNE,15,0.0,0.0,74,0.00,,,0.00,WUHU216DAVISVP2,2013-01-05 00:04:00,
2013-01-04 18:09:00,19.9,13.0,30.13,NNE,14,0.0,0.0,74,0.00,,,0.00,WUHU216DAVISVP2,2013-01-05 00:09:00,
2013-01-04 18:14:00,19.7,13.1,30.13,NNE,15,0.0,0.0,75,0.00,,,0.00,WUHU216DAVISVP2,2013-01-05 00:14:00,
2013-01-04 18:19:00,19.5,12.9,30.13,NNE,15,0.0,0.0,75,0.00,,,0.00,WUHU216DAVISVP2,2013-01-05 00:19:00,
2013-01-04 18:24:00,19.1,12.5,30.13,NNE,15,0.0,0.0,75,0.00,,,0.00,WUHU216DAVISVP2,2013-01-05 00:24:00,
2013-01-04 18:29:00,18.7,12.4,30.13,NNE,14,0.0,0.0,76,0.00,,,0.00,WUHU216DAVISVP2,2013-01-05 00:29:00,
2013-01-04 18:34:00,18.5,12.2,30.13,NNE,15,0.0,0.0,76,0.00,,,0.00,WUHU216DAVISVP2,2013-01-05 00:34:00,
2013-01-04 18:39:00,18.4,12.4,30.13,NNE,14,0.0,0.0,77,0.00,,,0.00,WUHU216DAVISVP2,2013-01-05 00:39:00,
2013-01-04 18:44:00,18.4,12.4,30.13,NNE,14,0.0,0.0,77,0.00,,,0.00,WUHU216DAVISVP2,2013-01-05 00:44:00,
2013-01-04 18:49:00,18.2,12.2,30.13,NNE,15,0.0,0.0,77,0.00,,,0.00,WUHU216DAVISVP2,2013-01-05 00:49:00,
2013-01-04 18:54:00,18.0,12.0,30.13,NNE,14,0.0,0.0,77,0.00,,,0.00,WUHU216DAVISVP2,2013-01-05 00:54:00,
2013-01-04 18:59:00,17.9,12.2,30.13,NNE,14,0.0,0.0,78,0.00,,,0.00,WUHU216DAVISVP2,2013-01-05 00:59:00,
2013-01-04 19:04:00,17.7,12.0,30.13,NNE,15,0.0,0.0,78,0.00,,,0.00,WUHU216DAVISVP2,2013-01-05 01:04:00,
2013-01-04 19:09:00,17.6,11.9,30.14,NNE,15,0.0,0.0,78,0.00,,,0.00,WUHU216DAVISVP2,2013-01-05 01:09:00,
2013-01-04 19:14:00,17.3,11.6,30.14,NNE,15,0.0,0.0,78,0.00,,,0.00,WUHU216DAVISVP2,2013-01-05 01:14:00,
2013-01-04 19:19:00,17.1,11.7,30.14,NNE,14,0.0,0.0,79,0.00,,,0.00,WUHU216DAVISVP2,2013-01-05 01:19:00,
2013-01-04 19:24:00,17.0,11.6,30.14,NNE,14,0.0,0.0,79,0.00,,,0.00,WUHU216DAVISVP2,2013-01-05 01:24:00,
2013-01-04 19:29:00,16.9,11.5,30.14,NNE,15,0.0,0.0,79,0.00,,,0.00,WUHU216DAVISVP2,2013-01-05 01:29:00,
2013-01-04 19:34:00,16.8,11.4,30.13,NNE,14,0.0,0.0,79,0.00,,,0.00,WUHU216DAVISVP2,2013-01-05 01:34:00,
2013-01-04 19:39:00,16.7,11.6,30.13,NNE,15,0.0,0.0,80,0.00,,,0.00,WUHU216DAVISVP2,2013-01-05 01:39:00,
2013-01-04 19:44:00,16.6,11.5,30.14,NNE,14,0.0,0.0,80,0.00,,,0.00,WUHU216DAVISVP2,2013-01-05 01:44:00,
2013-01-04 19:49:00,16.3,10.9,30.14,NNE,15,0.0,0.0,79,0.00,,,0.00,WUHU216DAVISVP2,2013-01-05 01:49:00,
2013-01-04 19:54:00,15.9,10.5,30.14,NNE,15,0.0,0.0,79,0.00,,,0.00,WUHU216DAVISVP2,2013-01-05 01:54:00,
2013-01-04 19:59:00,16.1,11.0,30.14,NNE,14,0.0,0.0,80,0.00,,,0.00,WUHU216DAVISVP2,2013-01-05 01:59:00,
2013-01-04 20:04:00,16.1,11.0,30.14,NNE,15,0.0,0.0,80,0.00,,,0.00,WUHU216DAVISVP2,2013-01-05 02:04:00,
2013-01-04 20:09:00,15.9,10.8,30.14,NNE,15,0.0,0.0,80,0.00,,,0.00,WUHU216DAVISVP2,2013-01-05 02:09:00,
2013-01-04 20:14:00,15.7,10.6,30.14,NNE,15,0.0,0.0,80,0.00,,,0.00,WUHU216DAVISVP2,2013-01-05 02:14:00,
2013-01-04 20:19:00,15.5,10.4,30.13,NNE,15,0.0,0.0,80,0.00,,,0.00,WUHU216DAVISVP2,2013-01-05 02:19:00,
2013-01-04 20:24:00,15.4,10.3,30.14,NNE,14,0.0,0.0,80,0.00,,,0.00,WUHU216DAVISVP2,2013-01-05 02:24:00,
2013-01-04 20:29:00,15.2,10.1,30.13,NNE,15,0.0,0.0,80,0.00,,,0.00,WUHU216DAVISVP2,2013-01-05 02:29:00,
2013-01-04 20:34:00,15.1,10.0,30.13,NNE,15,0.0,0.0,80,0.00,,,0.00,WUHU216DAVISVP2,2013-01-05 02:34:00,
2013-01-04 20:39:00,15.1,10.3,30.12,NNE,15,0.0,0.0,81,0.00,,,0.00,WUHU216DAVISVP2,2013-01-05 02:39:00,
2013-01-04 20:44:00,15.2,10.4,30.12,NNE,14,0.0,0.0,81,0.00,,,0.00,WUHU216DAVISVP2,2013-01-05 02:44:00,
2013-01-04 20:49:00,15.5,10.7,30.11,NNE,15,0.0,0.0,81,0.00,,,0.00,WUHU216DAVISVP2,2013-01-05 02:49:00,
2013-01-04 20:54:00,15.6,10.8,30.11,NNE,15,0.0,0.0,81,0.00,,,0.00,WUHU216DAVISVP2,2013-01-05 02:54:00,
2013-01-04 20:59:00,15.8,11.0,30.11,NNE,15,0.0,0.0,81,0.00,,,0.00,WUHU216DAVISVP2,2013-01-05 02:59:00,
2013-01-04 21:04:00,15.7,10.9,30.11,NNE,14,0.0,0.0,81,0.00,,,0.00,WUHU216DAVISVP2,2013-01-05 03:04:00,
2013-01-04 21:09:00,15.5,10.7,30.11,NNE,14,0.0,0.0,81,0.00,,,0.00,WUHU216DAVISVP2,2013-01-05 03:09:00,
2013-01-04 21:14:00,15.4,10.6,30.11,NNE,15,0.0,0.0,81,0.00,,,0.00,WUHU216DAVISVP2,2013-01-05 03:14:00,
2013-01-04 21:19:00,15.3,10.5,30.11,NNE,15,0.0,0.0,81,0.00,,,0.00,WUHU216DAVISVP2,2013-01-05 03:19:00,
2013-01-04 21:24:00,15.3,10.8,30.11,NNE,14,0.0,0.0,82,0.00,,,0.00,WUHU216DAVISVP2,2013-01-05 03:24:00,
2013-01-04 21:29:00,15.1,10.3,30.11,NNE,15,0.0,0.0,81,0.00,,,0.00,WUHU216DAVISVP2,2013-01-05 03:29:00,
2013-01-04 21:34:00,15.1,10.6,30.10,NNE,15,0.0,0.0,82,0.00,,,0.00,WUHU216DAVISVP2,2013-01-05 03:34:00,
2013-01-04 21:39:00,15.2,10.7,30.09,NNE,15,0.0,0.0,82,0.00,,,0.00,WUHU216DAVISVP2,2013-01-05 03:39:00,
2013-01-04 21:44:00,15.3,10.8,30.09,NNE,14,0.0,0.0,82,0.00,,,0.00,WUHU216DAVISVP2,2013-01-05 03:44:00,
2013-01-04 21:49:00,15.8,11.3,30.09,NNE,15,0.0,0.0,82,0.00,,,0.00,WUHU216DAVISVP2,2013-01-05 03:49:00,
2013-01-04 21:54:00,16.1,11.6,30.09,NNE,15,0.0,0.0,82,0.00,,,0.00,WUHU216DAVISVP2,2013-01-05 03:54:00,
2013-01-04 21:59:00,16.1,11.6,30.09,NNE,15,0.0,0.0,82,0.00,,,0.00,WUHU216DAVISVP2,2013-01-05 03:59:00,
2013-01-04 22:04:00,16.1,11.6,30.09,NNE,15,0.0,0.0,82,0.00,,,0.00,WUHU216DAVISVP2,2013-01-05 04:04:00,
2013-01-04 22:09:00,16.0,11.5,30.09,SE,136,0.0,0.0,82,0.00,,,0.00,WUHU216DAVISVP2,2013-01-05 04:09:00,
2013-01-04 22:14:00,15.8,11.0,30.09,SE,136,0.0,0.0,81,0.00,,,0.00,WUHU216DAVISVP2,2013-01-05 04:14:00,
2013-01-04 22:19:00,15.4,10.6,30.09,SE,137,0.0,0.0,81,0.00,,,0.00,WUHU216DAVISVP2,2013-01-05 04:19:00,
2013-01-04 22:24:00,15.1,10.3,30.10,South,180,0.0,0.0,81,0.00,,,0.00,WUHU216DAVISVP2,2013-01-05 04:24:00,
2013-01-04 22:29:00,14.6,9.8,30.10,South,186,0.0,0.0,81,0.00,,,0.00,WUHU216DAVISVP2,2013-01-05 04:29:00,
2013-01-04 22:34:00,14.2,9.4,30.10,South,187,0.0,0.0,81,0.00,,,0.00,WUHU216DAVISVP2,2013-01-05 04:34:00,
2013-01-04 22:39:00,13.8,9.0,30.10,South,187,0.0,0.0,81,0.00,,,0.00,WUHU216DAVISVP2,2013-01-05 04:39:00,
2013-01-04 22:44:00,13.5,8.7,30.10,South,187,0.0,0.0,81,0.00,,,0.00,WUHU216DAVISVP2,2013-01-05 04:44:00,
2013-01-04 22:49:00,13.3,8.6,30.10,South,187,0.0,0.0,81,0.00,,,0.00,WUHU216DAVISVP2,2013-01-05 04:49:00,
2013-01-04 22:54:00,13.2,8.7,30.09,South,187,0.0,0.0,82,0.00,,,0.00,WUHU216DAVISVP2,2013-01-05 04:54:00,
2013-01-04 22:59:00,13.1,8.6,30.09,South,187,0.0,0.0,82,0.00,,,0.00,WUHU216DAVISVP2,2013-01-05 04:59:00,
2013-01-04 23:00:00,13.1,8.6,30.09,South,186,0.0,0.0,82,0.00,,,0.00,WUHU216DAVISVP2,2013-01-05 05:00:00,
2013-01-04 23:01:00,13.2,8.7,30.09,South,186,0.0,0.0,82,0.00,,,0.00,WUHU216DAVISVP2,2013-01-05 05:01:00,
2013-01-04 23:03:00,13.2,8.7,30.09,South,187,0.0,0.0,82,0.00,,,0.00,WUHU216DAVISVP2,2013-01-05 05:03:00,
2013-01-04 23:08:00,13.2,8.7,30.09,South,186,0.0,0.0,82,0.00,,,0.00,WUHU216DAVISVP2,2013-01-05 05:08:00,
2013-01-04 23:13:00,13.2,8.7,30.08,South,186,0.0,0.0,82,0.00,,,0.00,WUHU216DAVISVP2,2013-01-05 05:13:00,
2013-01-04 23:18:00,13.3,9.1,30.08,South,186,0.0,0.0,83,0.00,,,0.00,WUHU216DAVISVP2,2013-01-05 05:18:00,
2013-01-04 23:23:00,13.4,9.2,30.08,South,186,0.0,0.0,83,0.00,,,0.00,WUHU216DAVISVP2,2013-01-05 05:23:00,
2013-01-04 23:28:00,13.5,9.3,30.08,South,186,0.0,0.0,83,0.00,,,0.00,WUHU216DAVISVP2,2013-01-05 05:28:00,
2013-01-04 23:33:00,13.5,9.3,30.08,South,186,0.0,0.0,83,0.00,,,0.00,WUHU216DAVISVP2,2013-01-05 05:33:00,
2013-01-04 23:38:00,13.3,9.1,30.08,South,186,0.0,0.0,83,0.00,,,0.00,WUHU216DAVISVP2,2013-01-05 05:38:00,
2013-01-04 23:43:00,13.1,8.9,30.07,South,186,0.0,0.0,83,0.00,,,0.00,WUHU216DAVISVP2,2013-01-05 05:43:00,
2013-01-04 23:48:00,13.1,8.9,30.07,South,186,0.0,0.0,83,0.00,,,0.00,WUHU216DAVISVP2,2013-01-05 05:48:00,
2013-01-04 23:53:00,13.0,8.8,30.07,South,187,0.0,0.0,83,0.00,,,0.00,WUHU216DAVISVP2,2013-01-05 05:53:00,
2013-01-04 23:58:00,13.0,8.8,30.07,South,186,0.0,0.0,83,0.00,,,0.00,WUHU216DAVISVP2,2013-01-05 05:58:00,